This is the latest recevied weather packets stored in our database for station/object N5SRF. If no packets are shown the sender has not sent any weather packets the latest 10 day(s).
| Time | Temp. | Humidity | Pressure | Rain* | Wind** | Luminosity | Snow |
|---|---|---|---|---|---|---|---|
| 1788117009 | 35.56° C | 51% | 1019.5 hPa | 0 mm | - | 525 W/m² | - |
| 1788116704 | 35° C | 54% | 1019.5 hPa | 0 mm | - | 239 W/m² | - |
| 1788116402 | 34.44° C | 53% | 1019.8 hPa | 0 mm | - | 661 W/m² | - |
| 1788116098 | 34.44° C | 53% | 1019.8 hPa | 0 mm | - | 166 W/m² | - |
| 1788115793 | 34.44° C | 55% | 1019.8 hPa | 0 mm | - | 135 W/m² | - |
| 1788115493 | 34.44° C | 54% | 1020 hPa | 0 mm | - | 156 W/m² | - |
| 1788115188 | 34.44° C | 55% | 1020.1 hPa | 0 mm | - | 397 W/m² | - |
| 1788114888 | 35° C | 55% | 1020.2 hPa | 0 mm | - | 277 W/m² | - |
| 1788114583 | 35.56° C | 53% | 1020.1 hPa | 0 mm | - | 512 W/m² | - |
| 1788114278 | 35° C | 55% | 1020.3 hPa | 0 mm | - | 794 W/m² | - |
| 1788113969 | 35.56° C | 50% | 1020.5 hPa | 0 mm | - | 789 W/m² | - |
| 1788113664 | 36.11° C | 49% | 1020.5 hPa | 0 mm | - | 189 W/m² | - |
| 1788113359 | 36.11° C | 49% | 1020.5 hPa | 0 mm | - | 780 W/m² | - |
| 1788113058 | 35.56° C | 50% | 1020.9 hPa | 0 mm | - | 783 W/m² | - |
| 1788112751 | 36.11° C | 51% | 1020.8 hPa | 0 mm | - | 778 W/m² | - |
| 1788112446 | 36.67° C | 50% | 1020.7 hPa | 0 mm | - | 761 W/m² | - |
| 1788112141 | 36.11° C | 49% | 1020.7 hPa | 0 mm | - | 745 W/m² | - |
| 1788111837 | 35.56° C | 50% | 1021.2 hPa | 0 mm | - | 736 W/m² | - |
| 1788111532 | 35.56° C | 49% | 1021 hPa | 0 mm | - | 726 W/m² | - |
| 1788111226 | 36.11° C | 49% | 1021 hPa | 0 mm | - | 733 W/m² | - |
| 1788110917 | 35.56° C | 49% | 1021.3 hPa | 0 mm | - | 728 W/m² | - |
| 1788110613 | 35.56° C | 48% | 1021.2 hPa | 0 mm | - | 726 W/m² | - |
| 1788110309 | 35.56° C | 55% | 1021.4 hPa | 0 mm | - | 718 W/m² | - |
| 1788110004 | 35° C | 56% | 1021.4 hPa | 0 mm | - | 715 W/m² | - |
| 1788109699 | 35.56° C | 55% | 1021.2 hPa | 0 mm | - | 710 W/m² | - |
* Rain latest hour (hover to see other rain measurements)
** Current wind speed in m/s (hover to see current wind gust speed)